This is the latest recevied weather packets stored in our database for station/object NK7E-1. If no packets are shown the sender has not sent any weather packets the latest 10 day(s).
| Time | Temp. | Humidity | Pressure | Rain* | Wind** | Luminosity | Snow |
|---|---|---|---|---|---|---|---|
| 1777562400 | 19.44° C | 23% | 1012.5 hPa | 0 mm | - | - | - |
| 1777561799 | 19.44° C | 24% | 1012.6 hPa | 0 mm | - | - | - |
| 1777561199 | 19.44° C | 25% | 1012.7 hPa | 0 mm | - | - | - |
| 1777560599 | 18.89° C | 27% | 1012.7 hPa | 0 mm | - | - | - |
| 1777559999 | 18.33° C | 27% | 1013 hPa | 0 mm | - | - | - |
| 1777559400 | 17.78° C | 28% | 1013 hPa | 0 mm | - | - | - |
| 1777558799 | 17.22° C | 30% | 1013 hPa | 0 mm | - | - | - |
| 1777558199 | 16.67° C | 32% | 1013 hPa | 0 mm | - | - | - |
| 1777557600 | 16.67° C | 31% | 1013 hPa | 0 mm | - | - | - |
| 1777556999 | 16.11° C | 30% | 1012.7 hPa | 0 mm | - | - | - |
| 1777556399 | 16.67° C | 30% | 1012.6 hPa | 0 mm | - | - | - |
| 1777555800 | 16.11° C | 30% | 1012.7 hPa | 0 mm | - | - | - |
| 1777555199 | 16.11° C | 30% | 1012.5 hPa | 0 mm | - | - | - |
| 1777554599 | 16.11° C | 29% | 1012.4 hPa | 0 mm | - | - | - |
| 1777554000 | 16.11° C | 30% | 1012.3 hPa | 0 mm | - | - | - |
| 1777553400 | 16.11° C | 30% | 1012.4 hPa | 0 mm | - | - | - |
| 1777552798 | 16.11° C | 29% | 1012.3 hPa | 0 mm | - | - | - |
| 1777552199 | 16.67° C | 29% | 1012.5 hPa | 0 mm | - | - | - |
| 1777551598 | 16.67° C | 29% | 1012.3 hPa | 0 mm | - | - | - |
| 1777550999 | 16.11° C | 29% | 1012.2 hPa | 0 mm | - | - | - |
| 1777550401 | 16.67° C | 29% | 1012.2 hPa | 0 mm | - | - | - |
| 1777549800 | 16.67° C | 27% | 1012.2 hPa | 0 mm | - | - | - |
| 1777549198 | 17.22° C | 27% | 1012.2 hPa | 0 mm | - | - | - |
| 1777548600 | 16.67° C | 27% | 1012.4 hPa | 0 mm | - | - | - |
| 1777547999 | 17.22° C | 27% | 1012.4 hPa | 0 mm | - | - | - |
* Rain latest hour (hover to see other rain measurements)
** Current wind speed in m/s (hover to see current wind gust speed)